This is the latest recevied weather packets stored in our database for station/object DM4XI-13. If no packets are shown the sender has not sent any weather packets the latest 10 day(s).
| Time | Temp. | Humidity | Pressure | Rain* | Wind** | Luminosity | Snow |
|---|---|---|---|---|---|---|---|
| 1777499434 | 6.11° C | 37% | 1024.8 hPa | 0 mm | 0.45 m/s, 204° | 0 W/m² | - |
| 1777499373 | 6.11° C | 37% | 1024.9 hPa | 0 mm | 0.89 m/s, 136° | 0 W/m² | - |
| 1777499313 | 6.11° C | 37% | 1024.7 hPa | 0 mm | 0.89 m/s, 328° | 0 W/m² | - |
| 1777499252 | 6.11° C | 37% | 1024.9 hPa | 0 mm | 0.45 m/s, 23° | 0 W/m² | - |
| 1777499191 | 6.11° C | 37% | 1024.6 hPa | 0 mm | 0.89 m/s, 259° | 0 W/m² | - |
| 1777499130 | 6.11° C | 37% | 1024.7 hPa | 0 mm | 1.34 m/s, 338° | 0 W/m² | - |
| 1777499069 | 6.11° C | 37% | 1024.7 hPa | 0 mm | 0.89 m/s, 4° | 0 W/m² | - |
| 1777499008 | 6.11° C | 37% | 1024.8 hPa | 0 mm | 1.34 m/s, 87° | 0 W/m² | - |
| 1777498946 | 6.11° C | 37% | 1024.6 hPa | 0 mm | 0 m/s | 0 W/m² | - |
| 1777498885 | 6.11° C | 38% | 1024.7 hPa | 0 mm | 0 m/s | 0 W/m² | - |
| 1777498824 | 6.67° C | 37% | 1024.7 hPa | 0 mm | 1.34 m/s, 269° | 0 W/m² | - |
| 1777498764 | 6.67° C | 37% | 1024.8 hPa | 0 mm | 0 m/s | 0 W/m² | - |
| 1777498702 | 6.67° C | 37% | 1024.7 hPa | 0 mm | 0.45 m/s, 330° | 0 W/m² | - |
| 1777498641 | 6.67° C | 37% | 1024.8 hPa | 0 mm | 0.45 m/s, 213° | 0 W/m² | - |
| 1777498581 | 6.67° C | 37% | 1024.7 hPa | 0 mm | 0.45 m/s, 114° | 0 W/m² | - |
| 1777498520 | 6.67° C | 37% | 1024.7 hPa | 0 mm | 0.89 m/s, 88° | 0 W/m² | - |
| 1777498459 | 6.67° C | 37% | 1024.8 hPa | 0 mm | 0.89 m/s, 169° | 0 W/m² | - |
| 1777498398 | 6.67° C | 37% | 1024.7 hPa | 0 mm | 1.34 m/s, 95° | 0 W/m² | - |
| 1777498336 | 6.67° C | 37% | 1024.7 hPa | 0 mm | 0.45 m/s, 164° | 0 W/m² | - |
| 1777498276 | 6.67° C | 37% | 1024.5 hPa | 0 mm | 0.45 m/s, 207° | 0 W/m² | - |
| 1777498215 | 6.67° C | 37% | 1024.6 hPa | 0 mm | 0.89 m/s, 316° | 0 W/m² | - |
| 1777498153 | 6.67° C | 37% | 1024.7 hPa | 0 mm | 0.89 m/s, 61° | 0 W/m² | - |
| 1777498092 | 6.67° C | 37% | 1024.6 hPa | 0 mm | 0.89 m/s, 22° | 0 W/m² | - |
| 1777498031 | 6.67° C | 37% | 1024.7 hPa | 0 mm | 0.45 m/s, 323° | 0 W/m² | - |
| 1777497971 | 6.67° C | 37% | 1024.6 hPa | 0 mm | 0.89 m/s, 354° | 0 W/m² | - |
* Rain latest hour (hover to see other rain measurements)
** Current wind speed in m/s (hover to see current wind gust speed)